Location: Bittkow
(50.3000°N, 19.0000°E)
Time: 02:55:40
(UTC+00:00)

Cosmos 1782 - Pass Details

Date: 19 September 2020
Orbit: 536 x 552 km, 82.5° (Epoch: 18 October)

Event Time Altitude Azimuth Distance (km) Brightness Sun altitude
Exits shadow 01:35:02 29° 118° (ESE) 1,037 4.4 -26.0°
Maximum altitude 01:35:56 32° 91° (E) 961 4.4 -25.9°
Drops below altitude 10° 01:39:34 10° 28° (NNE) 1,844 6.3 -25.5°
Sets 01:41:53 0° 18° (NNE) 2,743 7.2 -25.2°
